Location: Unspecified
(0.0000°N, 0.0000°E)
Time: 10:34:40
(UTC+00:00)

Hubble Space Telescope - Visible Passes

Search period start: 07 February 2016 00:00
Search period end: 17 February 2016 00:00
Orbit: 540 x 544 km, 28.5° (Epoch: 06 February)

Date Brightness Start Highest point End Pass type
(mag) Time Alt. Az. Time Alt. Az. Time Alt. Az.
07 Feb 3.7 04:02:54 12° NE 04:02:54 12° NE 04:03:26 10° ENE visible
07 Feb 0.8 05:38:20 10° WNW 05:42:29 84° NNE 05:46:38 10° ESE visible
07 Feb 3.2 19:16:59 10° WNW 19:19:08 14° NNW 19:21:16 10° N visible
08 Feb 3.7 03:54:18 12° ENE 03:54:18 12° ENE 03:54:52 10° ENE visible
08 Feb 0.9 05:29:43 15° WNW 05:33:05 65° SSW 05:37:12 10° SE visible
09 Feb 3.9 03:45:41 12° E 03:45:41 12° E 03:46:01 10° E visible
09 Feb 1.4 05:21:07 19° W 05:23:41 44° SSW 05:27:39 10° SE visible
10 Feb 1.9 05:12:29 22° WSW 05:14:17 30° SSW 05:17:59 10° SSE visible
11 Feb 2.3 05:03:50 20° SW 05:04:55 22° SSW 05:08:10 10° SSE visible
12 Feb 2.8 04:55:09 16° SW 04:55:33 16° SSW 04:58:09 10° S visible
13 Feb 3.2 04:46:26 12° SSW 04:46:26 12° SSW 04:47:41 10° S visible
